• In Hungary
  • List of Countries
  • For 7 days
  • Water Temperature
  • Satellite Maps
  • Weather Map
  • News
  • Weather Widgets
  • user-avatar
    Login

    Hourly Weather Gisik

    Today, 24 September, Monday

    Time Temperature Precipitation Wind Pressure Humidity
    00:00 +16°C° 0 mm 2 mps 686 mmHg 75%
    01:00 +15°C° 0 mm 2 mps 685 mmHg 73%
    02:00 +15°C° 0 mm 2 mps 685 mmHg 71%
    03:00 +15°C° 0 mm 2 mps 685 mmHg 67%
    04:00 +15°C° 0 mm 2 mps 685 mmHg 65%
    05:00 +15°C° 0 mm 2 mps 686 mmHg 64%
    06:00 +15°C° 0 mm 2 mps 686 mmHg 63%
    07:00 +17°C° 0 mm 2 mps 686 mmHg 58%
    08:00 +19°C° 0 mm 2 mps 687 mmHg 53%
    09:00 +21°C° 0 mm 2 mps 687 mmHg 49%
    10:00 +23°C° 0 mm 2 mps 687 mmHg 48%
    11:00 +22°C° 0 mm 3 mps 688 mmHg 48%
    12:00 +24°C° 0 mm 3 mps 688 mmHg 48%
    13:00 +22°C° 0 mm 3 mps 688 mmHg 51%
    14:00 +22°C° 0 mm 3 mps 688 mmHg 54%
    15:00 +22°C° 0 mm 3 mps 687 mmHg 56%
    16:00 +20°C° 0 mm 2 mps 687 mmHg 64%
    17:00 +20°C° 0 mm 1 mps 687 mmHg 73%
    18:00 +18°C° 0 mm 1 mps 687 mmHg 81%
    19:00 +18°C° 0 mm 1 mps 687 mmHg 80%
    20:00 +18°C° 0 mm 1 mps 687 mmHg 79%
    21:00 +16°C° 0 mm 1 mps 687 mmHg 79%
    22:00 +16°C° 0 mm 2 mps 687 mmHg 77%
    23:00 +16°C° 0 mm 2 mps 686 mmHg 76%

    Tomorrow, 25 September, Tuesday

    Time Temperature Precipitation Wind Pressure Humidity
    00:00 +16°C° 0 mm 2 mps 686 mmHg 74%
    01:00 +16°C° 0 mm 2 mps 686 mmHg 72%
    02:00 +16°C° 0 mm 2 mps 685 mmHg 70%
    03:00 +16°C° 0 mm 3 mps 685 mmHg 69%
    04:00 +16°C° 0 mm 3 mps 685 mmHg 67%
    05:00 +16°C° 0 mm 3 mps 685 mmHg 66%
    06:00 +16°C° 0 mm 3 mps 684 mmHg 65%
    07:00 +19°C° 0 mm 3 mps 685 mmHg 58%
    08:00 +21°C° 0 mm 3 mps 685 mmHg 51%
    09:00 +25°C° 0 mm 3 mps 685 mmHg 44%
    10:00 +26°C° 0 mm 3 mps 685 mmHg 43%
    11:00 +27°C° 0 mm 3 mps 684 mmHg 42%
    12:00 +28°C° 0 mm 3 mps 684 mmHg 41%
    13:00 +27°C° 0 mm 3 mps 684 mmHg 43%
    14:00 +27°C° 0 mm 3 mps 683 mmHg 44%
    15:00 +27°C° 0 mm 3 mps 683 mmHg 46%
    16:00 +25°C° 0 mm 2 mps 683 mmHg 55%
    17:00 +23°C° 0 mm 2 mps 683 mmHg 64%
    18:00 +20°C° 0 mm 1 mps 682 mmHg 74%
    19:00 +20°C° 0.1 mm 1 mps 683 mmHg 73%
    20:00 +19°C° 0.1 mm 2 mps 683 mmHg 71%
    21:00 +19°C° 0.1 mm 2 mps 683 mmHg 70%
    22:00 +19°C° 0.2 mm 2 mps 683 mmHg 70%
    23:00 +19°C° 0.2 mm 2 mps 683 mmHg 69%

    Day after tomorrow, 26 September, Wednesday

    Time Temperature Precipitation Wind Pressure Humidity
    00:00 +18°C° 0.2 mm 2 mps 683 mmHg 69%
    01:00 +18°C° 0 mm 2 mps 684 mmHg 71%
    02:00 +18°C° 0 mm 2 mps 684 mmHg 73%
    03:00 +17°C° 0 mm 2 mps 684 mmHg 76%
    04:00 +17°C° 0 mm 3 mps 684 mmHg 81%
    05:00 +16°C° 0 mm 3 mps 685 mmHg 87%
    06:00 +15°C° 0 mm 4 mps 685 mmHg 92%
    07:00 +17°C° 0 mm 4 mps 685 mmHg 87%
    08:00 +18°C° 0 mm 4 mps 686 mmHg 82%
    09:00 +17°C° 0 mm 5 mps 687 mmHg 77%
    10:00 +17°C° 0.1 mm 5 mps 687 mmHg 77%
    11:00 +17°C° 0.1 mm 5 mps 687 mmHg 77%
    12:00 +16°C° 0.1 mm 5 mps 687 mmHg 76%
    13:00 +16°C° 0 mm 5 mps 687 mmHg 76%
    14:00 +16°C° 0 mm 5 mps 687 mmHg 76%
    15:00 +16°C° 0 mm 5 mps 687 mmHg 76%
    16:00 +15°C° 0 mm 5 mps 687 mmHg 80%
    17:00 +14°C° 0 mm 5 mps 688 mmHg 84%
    18:00 +12°C° 0 mm 4 mps 688 mmHg 88%
    19:00 +12°C° 0 mm 4 mps 688 mmHg 88%
    20:00 +12°C° 0 mm 3 mps 688 mmHg 87%
    21:00 +12°C° 0 mm 3 mps 689 mmHg 87%
    22:00 +11°C° 0 mm 3 mps 689 mmHg 87%
    23:00 +11°C° 0 mm 3 mps 689 mmHg 87%

    27 September, Thursday

    Time Temperature Precipitation Wind Pressure Humidity
    00:00 +11°C° 0 mm 3 mps 689 mmHg 86%
    01:00 +11°C° 0 mm 3 mps 689 mmHg 87%
    02:00 +12°C° 0 mm 2 mps 689 mmHg 87%
    03:00 +10°C° 0 mm 2 mps 689 mmHg 87%
    04:00 +10°C° 0 mm 2 mps 689 mmHg 87%
    05:00 +10°C° 0 mm 2 mps 689 mmHg 87%
    06:00 +10°C° 0 mm 3 mps 689 mmHg 87%
    07:00 +12°C° 0 mm 3 mps 689 mmHg 81%
    08:00 +13°C° 0 mm 3 mps 690 mmHg 75%
    09:00 +16°C° 0 mm 3 mps 690 mmHg 68%
    10:00 +17°C° 0 mm 4 mps 690 mmHg 66%
    11:00 +17°C° 0 mm 4 mps 690 mmHg 65%
    12:00 +18°C° 0 mm 4 mps 690 mmHg 63%
    13:00 +17°C° 0 mm 4 mps 690 mmHg 65%
    14:00 +17°C° 0 mm 4 mps 690 mmHg 66%
    15:00 +17°C° 0 mm 3 mps 690 mmHg 68%
    16:00 +14°C° 0 mm 3 mps 689 mmHg 74%
    17:00 +14°C° 0 mm 2 mps 689 mmHg 81%
    18:00 +13°C° 0 mm 1 mps 689 mmHg 87%
    19:00 +13°C° 0 mm 1 mps 689 mmHg 87%
    20:00 +12°C° 0 mm 1 mps 690 mmHg 86%
    21:00 +12°C° 0 mm 1 mps 690 mmHg 86%
    22:00 +12°C° 0 mm 1 mps 690 mmHg 84%
    23:00 +12°C° 0 mm 1 mps 690 mmHg 83%

    28 September, Friday

    Time Temperature Precipitation Wind Pressure Humidity
    00:00 +12°C° 0 mm 1 mps 689 mmHg 81%
    01:00 +12°C° 0 mm 1 mps 689 mmHg 79%
    02:00 +12°C° 0 mm 1 mps 689 mmHg 76%
    03:00 +12°C° 0 mm 1 mps 689 mmHg 74%
    04:00 +12°C° 0 mm 1 mps 689 mmHg 72%
    05:00 +12°C° 0 mm 1 mps 689 mmHg 71%
    06:00 +12°C° 0 mm 1 mps 689 mmHg 69%
    07:00 +14°C° 0 mm 2 mps 690 mmHg 63%
    08:00 +16°C° 0 mm 2 mps 690 mmHg 58%
    09:00 +18°C° 0 mm 2 mps 691 mmHg 53%
    10:00 +19°C° 0 mm 3 mps 691 mmHg 53%
    11:00 +20°C° 0 mm 3 mps 691 mmHg 52%
    12:00 +21°C° 0 mm 4 mps 691 mmHg 52%
    13:00 +21°C° 0 mm 4 mps 690 mmHg 54%
    14:00 +21°C° 0 mm 4 mps 690 mmHg 56%
    15:00 +21°C° 0 mm 4 mps 689 mmHg 58%
    16:00 +19°C° 0 mm 4 mps 689 mmHg 67%
    17:00 +17°C° 0 mm 3 mps 689 mmHg 76%
    18:00 +14°C° 0 mm 3 mps 688 mmHg 85%
    19:00 +14°C° 0 mm 3 mps 688 mmHg 82%
    20:00 +14°C° 0 mm 3 mps 688 mmHg 80%
    21:00 +14°C° 0 mm 3 mps 688 mmHg 78%
    22:00 +14°C° 0 mm 3 mps 688 mmHg 75%
    23:00 +14°C° 0 mm 3 mps 687 mmHg 71%

    29 September, Saturday

    Time Temperature Precipitation Wind Pressure Humidity
    00:00 +14°C° 0 mm 3 mps 687 mmHg 68%
    01:00 +14°C° 0 mm 3 mps 687 mmHg 65%
    02:00 +14°C° 0 mm 3 mps 686 mmHg 62%
    03:00 +14°C° 0 mm 3 mps 686 mmHg 59%
    04:00 +14°C° 0 mm 3 mps 686 mmHg 57%
    05:00 +14°C° 0 mm 3 mps 686 mmHg 54%
    06:00 +14°C° 0 mm 3 mps 686 mmHg 52%
    07:00 +18°C° 0 mm 2 mps 686 mmHg 47%
    08:00 +21°C° 0 mm 2 mps 686 mmHg 42%
    09:00 +24°C° 0 mm 2 mps 687 mmHg 37%
    10:00 +25°C° 0 mm 2 mps 686 mmHg 37%
    11:00 +26°C° 0 mm 2 mps 686 mmHg 38%
    12:00 +27°C° 0 mm 3 mps 686 mmHg 38%
    13:00 +27°C° 0 mm 3 mps 685 mmHg 41%
    14:00 +26°C° 0 mm 3 mps 685 mmHg 43%
    15:00 +26°C° 0 mm 3 mps 685 mmHg 46%
    16:00 +24°C° 0 mm 3 mps 684 mmHg 54%
    17:00 +21°C° 0 mm 2 mps 684 mmHg 63%
    18:00 +19°C° 0 mm 2 mps 684 mmHg 71%
    19:00 +19°C° 0 mm 2 mps 684 mmHg 67%
    20:00 +19°C° 0 mm 2 mps 684 mmHg 64%
    21:00 +18°C° 0 mm 2 mps 684 mmHg 60%
    22:00 +18°C° 0 mm 2 mps 684 mmHg 55%
    23:00 +18°C° 0 mm 3 mps 684 mmHg 49%
    Show more